East Swanzey, NH

9:51 PM EDT on July 23, 2016 (GMT -0400)
Dillant-Hopkins

Weather History for KEEN - November, 2011

Change the Weather History Date:

Tuesday, November 15, 2011

  Actual Average Record
Temperature  
Mean Temperature 53 °F -  
Max Temperature 62 °F 45 °F 69 °F (1956)
Min Temperature 44 °F 27 °F 8 °F (1996)
Degree Days  
Heating Degree Days 12    
Growing Degree Days 3 (Base 50)    
Moisture  
Dew Point 46 °F    
Average Humidity 72    
Maximum Humidity 94    
Minimum Humidity 42    
Precipitation  
Precipitation 0.00 in - - ()
Sea Level Pressure  
Sea Level Pressure 29.80 in    
Wind  
Wind Speed 4 mph (SW)    
Max Wind Speed 10 mph    
Max Gust Speed 22 mph    
Visibility 10 miles    
Events      
Averages and records for this station are not official NWS values.
T = Trace of Precipitation, MM = Missing Value Source: NWS Daily Summary

Daily Weather History Graph

Daily Weather History Graph

Search for Another Location

Airport or City:

Trip Planner

Search our weather history database for the weather conditions in past years. The results will help you decide how hot, cold, wet, or windy it might be!

Date:

Astronomy

Nov. 15, 2011 Rise Set
Actual Time 6:40 AM EST 4:25 PM EST
Civil Twilight 6:10 AM EST 4:56 PM EST
Nautical Twilight 5:36 AM EST 5:30 PM EST
Astronomical Twilight 5:02 AM EST 6:04 PM EST
Moon 8:31 PM EST (11/15) 10:39 AM EST (11/15)
Length of Visible Light 10h 46m
Length of Day
9h 45m
Waning Gibbous, 79% of the Moon is Illuminated
Nov 15
Waning Gibbous
Nov 18
Last Quarter
Nov 25
New
Dec 2
First Quarter
Dec 10
Full

Hourly Weather History & Observations

Time (EST) Temp. Dew Point Humidity Pressure Visibility Wind Dir Wind Speed Gust Speed Precip Events Conditions
12:15 AM 51.8 °F 48.2 °F 88% 29.68 in 5.0 mi SW 5.8 mph - N/A   Overcast
12:35 AM 51.8 °F 48.2 °F 88% 29.68 in 7.0 mi South 4.6 mph - 0.01 in   Mostly Cloudy
1:15 AM 51.8 °F 48.2 °F 88% 29.69 in 8.0 mi Calm Calm - N/A   Overcast
1:35 AM 53.6 °F 50.0 °F 88% 29.69 in 10.0 mi Calm Calm - N/A   Overcast
1:55 AM 53.6 °F 51.8 °F 94% 29.68 in 9.0 mi SSW 5.8 mph - N/A   Overcast
2:15 AM 57.2 °F 51.8 °F 82% 29.65 in 10.0 mi South 9.2 mph 21.9 mph N/A   Overcast
2:35 AM 57.2 °F 51.8 °F 82% 29.67 in 10.0 mi Calm Calm - N/A   Overcast
2:55 AM 55.4 °F 51.8 °F 88% 29.67 in 10.0 mi SSW 3.5 mph - N/A   Overcast
3:15 AM 57.2 °F 51.8 °F 82% 29.65 in 10.0 mi South 10.4 mph - N/A   Mostly Cloudy
3:55 AM 57.2 °F 51.8 °F 82% 29.64 in 10.0 mi SSW 9.2 mph - N/A   Mostly Cloudy
4:15 AM 57.2 °F 51.8 °F 82% 29.66 in 10.0 mi Calm Calm - N/A   Overcast
4:35 AM 60.8 °F 51.8 °F 72% 29.66 in 10.0 mi SW 9.2 mph - N/A   Overcast
4:55 AM 60.8 °F 51.8 °F 72% 29.66 in 10.0 mi WSW 5.8 mph - N/A   Overcast
5:55 AM 59.0 °F 51.8 °F 77% 29.67 in 10.0 mi NNW 5.8 mph - N/A   Mostly Cloudy
6:55 AM 57.2 °F 50.0 °F 77% 29.70 in 10.0 mi South 6.9 mph - N/A   Partly Cloudy
8:15 AM 57.2 °F 50.0 °F 77% 29.73 in 10.0 mi South 6.9 mph - N/A   Overcast
8:55 AM 59.0 °F 51.8 °F 77% 29.72 in 10.0 mi South 3.5 mph - N/A   Clear
9:15 AM 60.8 °F 51.8 °F 72% 29.71 in 10.0 mi SSW 4.6 mph - N/A   Partly Cloudy
9:55 AM 59.0 °F 51.8 °F 77% 29.74 in 10.0 mi Calm Calm - N/A   Partly Cloudy
10:15 AM 60.8 °F 51.8 °F 72% 29.76 in 8.0 mi SW 4.6 mph - N/A   Scattered Clouds
10:35 AM 60.8 °F 51.8 °F 72% 29.78 in 10.0 mi West 6.9 mph - N/A   Partly Cloudy
10:55 AM 60.8 °F 50.0 °F 68% 29.76 in 10.0 mi West 8.1 mph - N/A   Clear
11:15 AM 62.6 °F 50.0 °F 63% 29.76 in 10.0 mi West 6.9 mph - N/A   Clear
11:55 AM 62.6 °F 46.4 °F 55% 29.78 in 10.0 mi SW 8.1 mph - N/A   Partly Cloudy
12:15 PM 62.6 °F 46.4 °F 55% 29.78 in 10.0 mi WSW 6.9 mph - N/A   Partly Cloudy
12:35 PM 62.6 °F 46.4 °F 55% 29.79 in 10.0 mi West 6.9 mph - N/A   Clear
12:55 PM 60.8 °F 44.6 °F 55% 29.78 in 10.0 mi WSW 5.8 mph - N/A   Scattered Clouds
1:15 PM 60.8 °F 42.8 °F 52% 29.79 in 10.0 mi SW 6.9 mph - N/A   Partly Cloudy
1:35 PM 60.8 °F 42.8 °F 52% 29.79 in 10.0 mi SW 4.6 mph - N/A   Clear
1:55 PM 60.8 °F 42.8 °F 52% 29.80 in 10.0 mi SW 8.1 mph - N/A   Clear
2:35 PM 60.8 °F 44.6 °F 55% 29.81 in 10.0 mi WSW 8.1 mph - N/A   Clear
2:55 PM 60.8 °F 39.2 °F 45% 29.80 in 10.0 mi West 8.1 mph 18.4 mph N/A   Clear
3:15 PM 60.8 °F 39.2 °F 45% 29.81 in 10.0 mi WSW 8.1 mph 16.1 mph N/A   Clear
3:35 PM 60.8 °F 37.4 °F 42% 29.83 in 10.0 mi WSW 5.8 mph - N/A   Clear
3:55 PM 60.8 °F 37.4 °F 42% 29.83 in 10.0 mi WSW 5.8 mph - N/A   Clear
4:15 PM 59.0 °F 37.4 °F 45% 29.83 in 10.0 mi WSW 4.6 mph - N/A   Clear
4:55 PM 55.4 °F 39.2 °F 54% 29.85 in 10.0 mi Calm Calm - N/A   Clear
5:15 PM 53.6 °F 41.0 °F 62% 29.86 in 10.0 mi South 3.5 mph - N/A   Clear
5:35 PM 53.6 °F 41.0 °F 62% 29.87 in 10.0 mi Calm Calm - N/A   Clear
5:55 PM 51.8 °F 41.0 °F 67% 29.88 in 10.0 mi Calm Calm - N/A   Clear
6:15 PM 50.0 °F 41.0 °F 71% 29.88 in 10.0 mi Calm Calm - N/A   Clear
6:35 PM 50.0 °F 41.0 °F 71% 29.90 in 10.0 mi Calm Calm - N/A   Mostly Cloudy
6:55 PM 48.2 °F 41.0 °F 76% 29.90 in 10.0 mi Calm Calm - N/A   Scattered Clouds
7:35 PM 48.2 °F 41.0 °F 76% 29.92 in 10.0 mi Calm Calm - N/A   Mostly Cloudy
7:55 PM 48.2 °F 41.0 °F 76% 29.92 in 10.0 mi Calm Calm - N/A   Scattered Clouds
8:15 PM 48.2 °F 42.8 °F 82% 29.94 in 10.0 mi Calm Calm - N/A   Mostly Cloudy
8:35 PM 46.4 °F 41.0 °F 81% 29.95 in 10.0 mi Calm Calm - N/A   Mostly Cloudy
8:55 PM 46.4 °F 42.8 °F 87% 29.94 in 10.0 mi Calm Calm - N/A   Mostly Cloudy
9:15 PM 46.4 °F 41.0 °F 81% 29.94 in 10.0 mi Calm Calm - N/A   Mostly Cloudy
9:55 PM 46.4 °F 42.8 °F 87% 29.95 in 10.0 mi Calm Calm - N/A   Overcast
10:15 PM 46.4 °F 42.8 °F 87% 29.94 in 10.0 mi Calm Calm - N/A   Overcast
10:35 PM 46.4 °F 42.8 °F 87% 29.95 in 10.0 mi Calm Calm - N/A   Overcast
10:55 PM 44.6 °F 42.8 °F 93% 29.95 in 10.0 mi Calm Calm - N/A   Overcast
11:15 PM 44.6 °F 41.0 °F 87% 29.95 in 10.0 mi Calm Calm - N/A   Overcast
11:35 PM 44.6 °F 41.0 °F 87% 29.96 in 10.0 mi Calm Calm - N/A   Overcast